Regional Weather Roundup
Issued by NWS Wakefield, VA

Home | Current Version | Previous Version | Text Only | Print | Product List | Glossary On
Versions: 1 2 3 4 5 6 7 8 9 10 11 12 13 14 15 16 17 18 19 20 21 22 23 24 25 26 27 28 29 30 31 32 33 34 35 36 37 38 39 40 41 42 43 44 45 46 47 48 49 50
000
ASUS41 KAKQ 192015
RWRAKQ

REGIONAL WEATHER ROUNDUP
NATIONAL WEATHER SERVICE WAKEFIELD VA
400 PM EDT THU OCT 19 2017

Note: "fair" indicates few or no clouds below 12,000 feet with no
significant weather and/or obstructions to visibility. * = Denotes
station may not report precipitation (e.g., rain,snow,etc.),
thunder or fog.

VAZ042-051-052>054-056-192100-
NORTHERN VIRGINIA

CITY           SKY/WX    TMP DP  RH WIND       PRES   REMARKS
WASH NATIONAL  FAIR      71  51  49 S10       30.17F
DULLES         FAIR      73  44  35 SW6       30.17F
FORT BELVOIR   FAIR      72  46  39 S5        30.17F
QUANTICO       FAIR      73  53  49 S7        30.18F
FREDERICKSBRG* FAIR      75  46  35 SW5       30.17F
STAFFORD*      FAIR      74  42  31 CALM      30.21F
WARRENTON      FAIR      76  37  24 S6        30.17F
CULPEPER*      FAIR      76  39  25 S6        30.17F
MANASSAS*      FAIR      74  45  35 S7        30.17F
LEESBURG*      FAIR      75  50  41 S6        30.17F
WINCHESTER     FAIR      72  43  35 SW5       30.15F
FRONT ROYAL*   FAIR      77  41  27 SW6       30.15S
LURAY*         FAIR      77  37  24 SW6       30.16F
$$

VAZ048-049-060>072-079>083-192100-
CENTRAL AND SOUTH CENTRAL VIRGINIA

CITY           SKY/WX    TMP DP  RH WIND       PRES   REMARKS
RICHMOND       FAIR      74  43  32 VRB5      30.19F
CHESTERFIELD*  NOT AVBL
PETERSBURG*    FAIR      74  38  27 SW6       30.21S
HANOVER        FAIR      73  44  35 SW6       30.20F
TAPPAHANNOCK*  FAIR      75  31  19 SW6       30.20F
QUINTON*       FAIR      73  44  35 NW6       30.19F
CHARLOTTSVILLE FAIR      76  42  29 SE8       30.18F
GORDONSVILLE*  FAIR      75  45  33 S5        30.17F
ORANGE*        FAIR      73  43  33 CALM      30.18S
LOUISA*        FAIR      73  45  35 CALM      30.18F
BUMPASS*       FAIR      73  45  36 SW5       30.19S
FARMVILLE*     FAIR      77  44  30 S6        30.18F
CREWE*         FAIR      74  42  31 SW3       30.20F
FORT PICKETT*  FAIR      75  37  25 W7        30.21S
CHASE CITY*    FAIR      74  37  26 W5        30.21S
CLARKSVILLE*   FAIR      73  37  27 S7        30.21F
SOUTH HILL*    FAIR      73  48  40 S6        30.27S
LAWRENCEVILLE* FAIR      74  44  33 SW8       30.20F
EMPORIA*       FAIR      73  50  43 S3        30.22S
$$

VAZ088>098-192100-
SOUTHEAST VIRGINIA

CITY           SKY/WX    TMP DP  RH WIND       PRES   REMARKS
NORFOLK        FAIR      72  57  59 NE7       30.19F
VIRGINIA BEACH FAIR      71  57  61 E7        30.19F
NORFOLK NAVAL  FAIR      74  54  49 W6        30.21F
WEST POINT*    FAIR      74  48  40 SW7       30.21S
SALUDA*        FAIR      73  53  50 SW5       30.19F
NEWPORT NEWS   FAIR      74  52  46 W8        30.20F
LANGLEY AFB    NOT AVBL
FORT EUSTIS    FAIR      77  55  46 SW5       30.17F
WILLIAMSBURG*  FAIR      77  54  44 W6        30.20F
HR EXEC AP*    NOT AVBL
FRANKLIN*      FAIR      74  51  44 W6        30.20F
US460-WAKEFLD  FAIR      74  53  48 SW5       30.20F
$$

VAZ020-022-025-037-045-192100-
WEST CENTRAL AND SOUTHWEST VIRGINIA

CITY           SKY/WX    TMP DP  RH WIND       PRES   REMARKS
STAUNTON*      FAIR      74  40  28 S7        30.20S
WAYNESBORO*    FAIR      73  40  31 SW3       30.20F
HOT SPRINGS VA FAIR      65  29  26 W9        30.29S
LYNCHBURG      FAIR      74  40  29 S8        30.21F
DANVILLE       FAIR      74  43  32 CALM      30.22F
SOUTH BOSTON*  FAIR      74  38  26 NW3       30.21F
MARTINSVILLE   FAIR      74  44  33 CALM      30.24F
ROANOKE        FAIR      75  44  33 S5        30.23F
BLACKSBURG     FAIR      71  44  37 CALM      30.28F
DUBLIN*        FAIR      73  37  27 W7        30.26F
MARION*        FAIR      69  36  29 SW8       30.30S
HILLSVILLE*    FAIR      69  17  13 CALM      30.27S
RICHLANDS*     FAIR     N/A N/A N/A W5        30.29F
WISE*          FAIR      70  45  40 SW3       30.30S
ABINGDON*      FAIR      70  40  33 W3        30.28F
$$

MDZ021>025-VAZ099-100-192100-
SOUTHERN MARYLAND AND THE DELMARVA PENINSULA

CITY           SKY/WX    TMP DP  RH WIND       PRES   REMARKS
PATUXENT RIVER FAIR      72  47  40 SW6       30.18F
BAY BRIDGE APT FAIR      70  50  49 S9        30.17F
LEONARDTOWN    NOT AVBL
DOVER          MOSUNNY   72  44  37 SW12      30.15F
GEORGETOWN     FAIR      72  45  37 SW7       30.18F
EASTON         SUNNY     70  45  40 SW9       30.22F
CAMBRIDGE      SUNNY     70  50  49 VRB6      30.19F
SALISBURY      FAIR      71  49  45 VRB7      30.18F
OCEAN CITY     FAIR      69  57  65 S8        30.19F
WALLOPS ISLAND FAIR      71  54  54 MISG      30.20F
ACCOMACK*      FAIR      72  53  51 W7        30.19F
$$

NCZ012>017-030>032-192100-
NORTH CENTRAL AND EASTERN NORTH CAROLINA

CITY           SKY/WX    TMP DP  RH WIND       PRES   REMARKS
ROANOKE RAPIDS FAIR      73  52  46 SW7       30.21S
RALEIGH        FAIR      76  49  38 W6        30.23S
ELIZABETH CITY FAIR      76  57  51 CALM      30.19F
AHOSKIE*       FAIR      73  55  52 NW3       30.21F
EDENTON*       FAIR      78  55  44 CALM      30.20S
CURRITUCK*     FAIR      73  59  61 E5        30.20F
KILL DEVIL HLS FAIR      71  59  65 CALM      30.19S
MANTEO         FAIR     N/A N/A N/A E5        30.21R
CAPE HATTERAS  FAIR      77  55  46 VRB7      30.18F
TARBORO*       NOT AVBL
GOLDSBORO      SUNNY     79  52  38 CALM      30.19S
WASHINGTON     FAIR      77  54  43 N7        30.20S
GREENVILLE     FAIR      77  50  38 CALM      30.21F
NEW BERN       FAIR      79  54  41 VRB3      30.20S
WILMINGTON     FAIR      78  59  51 E7        30.18F
$$

VAZ048-192100-
ELSEWHERE

CITY           SKY/WX    TMP DP  RH WIND       PRES   REMARKS
HARRISBURG PA  FAIR      73  47  39 W6        30.12F
BALTIMORE      FAIR      72  46  39 S5        30.15F
ANNAPOLIS      FAIR      70  54  56 SE10      30.17F
ANDREWS AFB    FAIR      72  43  35 SW7       30.16F
PHILADELPHIA   FAIR      71  44  37 SW14      30.14F
HENDERSON NC   FAIR      72  39  30 W3        30.22F
GREENSBORO     FAIR      75  42  30 VRB5      30.22F
ROCKY MOUNT    FAIR      74  54  49 W5        30.21F
$$

VAZ100-192100-
MARINE

STATION/POSITION TIME  TEMP    WIND        PRES    WAVE   SWELL
                       AIR SEA DIR/SP/G            HT/PER HT/PER
                 (UTC) (F)     (DEG/KT/KT) (MB)    (FT/S) (FT/S)
BRANDYWINE LGT   1942   69     210/  5/  6 1022.1F
CAPE MAY NJ      1942   67 65  200/  4/  6 1021.4F
LEWES DE         1942   71 65  270/  8/ 10 1021.6F
15NM E FENWICK I 1950   66 68  190/ 12/ 14 1022.6F   3/ 9   3/ 9
OCEAN-CITY-INLET 1942   69 67  230/ 12/ 14 1022.5F
WACHAPREAGUE VA  1942   71 66  230/  7/ 13 1022.6F
THOMAS POINT MD  2000   66 67  170/ 13/ 15   N/A
GOOSES REEF MD   2000   69 69  240/  8/ 10 1025.7    1
COVE POINT MD    1942   69     220/  6/  9 1022.8F
SOLOMONS ISLAND  1942   71 70  240/  8/  9 1021.8F
BISHOPS HEAD MD  1942   65 66  180/  5/  5 1022.9F
PINEY POINT MD   1942          100/  2/  2   N/A
POTOMAC MD       2000   68 70  100/  6/  6 1021.7    0
CAMBRIDGE MD     1942   71 67              1022.9F
LEWISETTA VA     1942   70 66  270/  4/  6 1022.1F
RAPPAHANNOCK LGT 1942          180/  9/ 11 1023.1F
STINGRAY PT      2000   71 69  250/  6/  6 1022.7    0
YORK RVR RNG VA  1942   69     120/  5/  5 1023.1F
YORKTOWN VA      1942   73 70  190/  2/  4 1022.1F
JAMESTOWN VA     2000      71  240/  2/  4   N/A     0
DOMINION TERM VA 1942   71      CALM  /  2 1022.9F
KIPTOPEKE VA     1942      68  160/  4/  5   N/A
CAPE HENRY VA    1942   68      30/  4/  6   N/A
WILLOUBY STN VA  1942   72     290/  3/  3 1022.6F
S CRANEY ISL VA  1942   72      80/  4/  4 1022.3F
CAPE HENRY BUOY  2000      71                N/A     3/ 9
1ST LANDING BUOY 2000      70                N/A     1/ 5
CAPE CHARLES BUO 1951      72                N/A     2/10
64NM E OF VA BCH 1950   69 69   30/  4/  4 1023.4F   3/ 9   3/ 9
DUCK PIER NC     1942   74 70  100/  7/  7 1022.3F
44100 DUCK FRF   1905      71                N/A     3/ 9
44056 DUCK FRF   2000      70                N/A     3/ 8
OREGON INLET NC  1942   71 66   40/  6/  8 1022.4F
HATTERAS NC      1942   70 69   10/  7/  8 1022.1F
DIAMOND SHLS NC  1950   75 81   30/ 10/ 12 1021.6F   5/ 9   5/ 9
CAPE LOOKOUT NC  2000   73      40/ 10/ 10 1021.8S
$$



USA.gov is the U.S. government's official web portal to all federal, state and local government web resources and services.